Location: Peebles
(55.6412°N, 3.1714°W)
Time: 09:06:36
(UTC+01:00)

NOSS 3-3 (A) - Pass Details

Date: 06 February 2022
Orbit: 789 x 1423 km, 63.4° (Epoch: 23 April)

Event Time Altitude Azimuth Distance (km) Brightness Sun altitude
Exits shadow 04:10:38 12° 155° (SSE) 2,367 6.0 -31.8°
Maximum altitude 04:14:19 21° 111° (ESE) 1,935 6.0 -31.3°
Drops below altitude 10° 04:19:00 10° 65° (ENE) 2,789 7.3 -30.7°
Sets 04:22:24 0° 51° (NE) 3,864 8.1 -30.2°
